Home > Weather > Ny-Ålesund > Past weeks

Flag for Norway Past Weather in Ny-Ålesund, Svalbard, Norway — Yesterday and Last 2 Weeks

Now
42 °F

Overcast.


Feels Like: 42 °F
Forecast: 35 / 41 °F
Wind: 2 mph from East

Location: Ny Alesund

Current Time: Jul 26, 2016 at 8:39:46 AM

Latest Report: Jul 26, 2016 at 8:00 AM


Visibility: 25 mi

Pressure: 30.21 "Hg

Humidity: 82%

Dew Point: 37 °F

Location of Ny-ÅlesundLocation

Past Weather in Ny-Ålesund — Graph

°F

Ny-Ålesund Temperature Yesterday

Maximum temperature yesterday: 46 °F (at 4:00 PM)
Minimum temperature yesterday: 42 °F (at 12:00 PM)
Average temperature yesterday: 44 °F

High & Low Weather Summary for the Past Weeks

 TemperatureHumidityPressure
High55 °F (Jul 11, 9:00 PM)90% (Jul 22, 5:00 AM)30.21 "Hg (Jul 22, 5:00 AM)
Low39 °F (Jul 21, 11:00 PM)55% (Jul 11, 10:00 AM)29.47 "Hg (Jul 19, 2:00 PM)
Average45 °F77%29.84 "Hg
* Reported Jul 11 7:00 AM — Jul 26 7:00 AM, Ny-Ålesund, Weather by CustomWeather, © 2016

Note: Actual official high and low records may vary slightly from our data, if they occured in-between our weather recording intervals... More about our weather records

Advertising

Ny-Ålesund Weather History for the Previous 24 Hours

Scroll right to see more
 ConditionsComfort  
Time TempWeatherWind HumidityBarometerVisibility
7:00 AM
Tue, Jul 26
43 °FQuite cool.1 mph80%30.21 "HgN/A
6:00 AM43 °FQuite cool.1 mph81%30.20 "HgN/A
5:00 AM43 °FQuite cool.2 mph80%30.20 "HgN/A
4:00 AM43 °FQuite cool.1 mph80%30.20 "HgN/A
3:00 AM43 °FQuite cool.1 mph79%30.20 "HgN/A
2:00 AM43 °FQuite cool.2 mph79%30.19 "HgN/A
1:00 AM42 °FQuite cool.2 mph80%30.19 "HgN/A
12:00 AM43 °FQuite cool.2 mph79%30.18 "HgN/A
11:00 PM
Mon, Jul 25
44 °FQuite cool.3 mph74%30.18 "HgN/A
10:00 PM44 °FQuite cool.5 mph72%30.17 "HgN/A
9:00 PM45 °FCool.5 mph67%30.16 "HgN/A
8:00 PM45 °FPartly sunny.5 mph69%30.16 "Hg47 mi
6:00 PM44 °FQuite cool.6 mph72%30.15 "HgN/A
5:00 PM44 °FQuite cool.6 mph74%30.15 "HgN/A
4:00 PM46 °FCool.5 mph64%30.14 "HgN/A
3:00 PM46 °FCool.7 mph67%30.13 "HgN/A
2:00 PM44 °FScattered clouds.8 mph72%30.12 "Hg47 mi
1:00 PM44 °FQuite cool.8 mph75%30.12 "HgN/A
12:00 PM42 °FQuite cool.8 mph78%30.11 "HgN/A
11:00 AM44 °FQuite cool.7 mph74%30.10 "HgN/A
10:00 AM43 °FQuite cool.7 mph74%30.10 "HgN/A
9:00 AM43 °FQuite cool.7 mph76%30.09 "HgN/A
8:00 AM44 °FPartly sunny.8 mph74%30.07 "Hg47 mi
Weather by CustomWeather, © 2016

See weather overviewHow to use our weather pages